Погода в Кировограде

Хотите узнать прогноз погоды в Кировограде? Тогда Вам сюда: Погода в Кировограде

Поиск расширенной информации на нашем сайте:

Полезная информация:

Новости сайта



02.01.2020
Опубликован Долгосрочный прогноз погоды по городам России и ближнего зарубежья на январь 2020 года.
Карты: Прогноз на январь и февраль 2020 года, Сравнение прогнозируемой аномалии приземной температуры воздуха на январь 2020 года по разным моделям.




Погода в Кировограде - сегодня

Время (UTC), дата Ветер
(°,м/с) 
Видим.   Явления Облачность Т
(°С)
Тd
(°С)
f(%) Тe
(°С)
Pmin
(гПа)
dP
(гПа)
Po
(мм)
O2
(г/м3)
Тmin Tmax R s Состояние
почвы
00 16.01.22 320 (СЗ) 10 км    8/8 1410 м 
[Sc]
+0.1 -4.6 71 -3  1016.8  2.1  746  301           
03 16.01.22 300 (СЗ) 10 км    10/10 1380 м 
[Sc]
+0.3 -5.1 67 -3  1018.1  1.3  747  301           
06 16.01.22 310 (СЗ) 10 км    10/10 1170 м кучево-дожд. 
[Cb calv]
+0.2 -4.5 71 -3  1019.6  1.5  749  302  -0.4      равномерный
мокрый или
старый снег
100% 
09 16.01.22 300 (СЗ) 10 км    10/10 1230 м 
[Sc]
+0.9 -5.1 64 -1  1020.6  749  301        597  мокрый или
старый снег
10-40% 
12 16.01.22 310 (СЗ) 10 км    10/10 1110 м 
[Sc]
+1 -5.8 60 -1  1020.2  -0.4  749  301          затоплена
водой 
15 16.01.22 280 (З) 10 км    10/10 1020 м 
[Sc]
+0 -6.4 62 -2  1020.4  0.1  749  303           
18 16.01.22 280 (З) 10 км    9/9 1000 м 
[Sc]
-0.5 -6.4 64 -2  1020.3  -0.1  749  303    +1       
21 16.01.22 250 (З) 10 км    9/9 900 м 
[Sc]
-1 -7.1 63 -3  1019.2  -1.1  748  303           
00 17.01.22 210 (ЮЗ) 10 км    3/0 средняя 
[Ac trans]
-2.7 -8 67 -6  1017.3  -2  747  305           
03 17.01.22 210 (ЮЗ) 10 км    ясно 
-3.8 -7.8 74 -7  1014.5  -2.8  745  305           
06 17.01.22 220 (ЮЗ) 10 км    9/6 1200 м средняя 
[Sc|Ac trans]
-3 -7.6 71 -6  1011.7  -2.7  743  303  -4.3      равномерный
мокрый или
старый снег
100% 
09 17.01.22 220 (ЮЗ) 10 км    10/0 средняя 
[Ac As]
-0.9 -7.3 62 -5  1007.9  -3.6  740  300           
12 17.01.22 220 (ЮЗ) 10 км    8/0 средняя 
[Ac trans]
+0.7 -5.3 64 -3  1004  -3.7  737  297           
15 17.01.22 220 (ЮЗ) 10 км    10/10 1080 м 
[Sc]
+1.6 -4.1 66 -2  1000.9  -2.9  735  295           
18 17.01.22 230 (ЮЗ) 1700 м  ливневой дождь со снегом  10/10 100 м кучево-дожд. 
[Cb calv]
+0.1 -1.6 88 -4  998.9  -2.1  733  296    +1.6  0.4     
21 17.01.22 300 (СЗ) 10 км  слаб. ливневой дождь со снегом  10/10 360 м кучево-дожд. 
[Cb calv]
+0.1 -0.7 94 -4  998.5  -0.4  733  295           
00 18.01.22 290 (З) 10 км  {ливн. осадки}  8/4 1000 м средняя 
[Sc|Ac trans]
-1.6 -4.3 82 -5  1000.3  1.6  734  298           
03 18.01.22 270 (З) 10 км  слаб. ливневой снег  10/10 630 м кучево-дожд. 
[Cb calv]
-1.4 -3.4 86 -5  1000.5  0.3  734  298           
06 18.01.22 330 (СЗ) 11  5000 м  слаб. ливневой снег  10/10 200 м кучево-дожд. 
[Cb calv]
-3 -3.7 95 -9  1004.8  737  301  -3       
09 18.01.22 320 (СЗ) 4200 м  слаб. ливневой снег  10/10 480 м кучево-дожд. 
[Cb calv]
-3.8 -4.9 92 -9  1008.2  3.3  740  303           
12 18.01.22 320 (СЗ) 4400 м  слаб. ливневой снег  10/10 450 м кучево-дожд. 
[Cb calv]
-3.2 -5.2 86 -8  1011.2  742  303           
15 18.01.22 330 (СЗ) 10 км  позёмок{ливн. осадки}  9/6 630 м кучево-дожд., средняя 
[Cb calv|Ac trans]
-3.8 -9.1 67 -9  1014  2.7  744  305           
18 18.01.22 330 (СЗ) 10 км  позёмок{ливн. осадки}  9/8 600 м кучево-дожд., средняя 
[Cb calv|Ac trans]
-4.2 -7.2 80 -9  1016.3  2.2  746  306    -3  0.6     
21 18.01.22 340 (С) 4000 м  слаб. ливневой снег  9/8 660 м кучево-дожд., средняя 
[Cb calv|Ac trans]
-4.2 -7.2 80 -9  1018.5  2.1  747  307          затоплена
водой 
00 19.01.22 340 (С) 10 км  позёмок{ливн. осадки}  10/10 960 м кучево-дожд. 
[Cb calv]
-4.8 -9.2 71 -10  1020.9  2.3  749  308           
Время (UTC), дата Ветер
(°,м/с) 
Видим.   Явления Облачность Т
(°С)
Тd
(°С)
f(%) Тe
(°С)
Pmin
(гПа)
dP
(гПа)
Po
(мм)
O2
(г/м3)
Тmin Tmax R s Состояние
почвы

Для получения пояснительной информации подведите курсор к названию столбца.

ПОГОДА в Кировограде - архив

Всё, что Вы хотите узнать о погоде в Кировограде - удобно и подробно!

Выберите нужную дату (начиная с 1 января 2019* года) и нажмите кнопку "Найти".
Будут отображены архивные сводки погоды по пункту Кировоград, начиная с указанной даты.


Отображать данные в формате CSV (для использования в таблицах Excel)


Внимание! Наш архив погоды предназначен исключительно для личного некоммерческого использования в познавательных целях. Если Вам необходимы официальные справки о состоянии погоды (для производственных, юридических, коммерческих и т.п. целей), обращайтесь в органы Росгидромета.

*Примечание: данная дата относится к архиву по метеостанциям СССР (Россия, СНГ, Балтия).
Архив по метеостанциям Зарубежной Европы и Азии (кроме Китая) хранится 10 дней, по другим регионам земного шара (Китай, Африка, Америка, Австралия, Океания) - 1 день.

Кировоград - район местоположения метеостанции


Название, широта, долгота, высота метеостанции:
Кировоград 48.5°ш. 32.2°д. 171 м над ур. моря [Украина]

Дополнительная информация

В oтличие oт бoльшинства пoгoдных сайтoв мы публикуем пoдрoбную метеoинфoрмацию в детальнoм прoфессиoнальнoм фoрмате.

Характеристики температуры и влажнoсти вoздуха измеряются на высoте 2 м в тени вдали oт зданий и деревьев.
Скoрoсть ветра измеряется на высoте 10 м (на урoвне рoста челoвека скoрoсть ветра ниже в 1.5-2 раза). Если метеoстанция нахoдится в гoрoде или в лесу, тo скoрoсть ветра занижена на 2-4 м/с пo сравнению с oткрытым местoм. Скoрoсть ветра над акватoриями крупных рек и oзёр, а также на вершинах хoлмoв на 2-5 м/с выше, чем в oбычных услoвиях.
Атмoсфернoе давление в разных тoчках местнoсти мoжет значительнo oтличаться oт давления на метеoстанции, в зависимoсти oт услoвий рельефа (при пoдъёме на 10 м давление пoнижается примернo на 1 мм рт.ст.).